Change the Weather History Date:

Tuesday, July 24, 2012

  Actual Average Record
Temperature  
Mean Temperature 87 °F 75 °F  
Max Temperature 98 °F 86 °F 98 °F (2012)
Min Temperature 76 °F 64 °F 53 °F (2000)
Cooling Degree Days 22 10  
Month to date cooling degree days 429 262  
Year to date cooling degree days 908 578  
Since 1 June cooling degree days 684 491  
Growing Degree Days 38 (Base 50)    
Moisture  
Dew Point 70 °F    
Average Humidity 58    
Maximum Humidity 74    
Minimum Humidity 42    
Precipitation  
Precipitation 0.00 in 0.12 in 3.03 in (2010)
Month to date precipitation 1.08 3.07  
Year to date precipitation 10.25 21.87  
Sea Level Pressure  
Sea Level Pressure 29.92 in    
Wind  
Wind Speed 8 mph (East)    
Max Wind Speed 16 mph    
Max Gust Speed 21 mph    
Visibility 10 miles    
Events      
T = Trace of Precipitation, MM = Missing Value Source: NWS Daily Summary

Daily Weather History Graph

Daily Weather History Graph

Search for Another Location

Airport or City:

Trip Planner

Search our weather history database for the weather conditions in past years. The results will help you decide how hot, cold, wet, or windy it might be!

Date:

Astronomy

Jul. 24, 2012 Rise Set
Actual Time 5:47 AM CDT 8:15 PM CDT
Civil Twilight 5:16 AM CDT 8:46 PM CDT
Nautical Twilight 4:38 AM CDT 9:24 PM CDT
Astronomical Twilight 3:55 AM CDT 10:07 PM CDT
Moon 11:44 AM CDT (7/24) 11:04 PM CDT (7/24)
Length of Visible Light 15h 30m
Length of Day
14h 28m
Waxing Crescent, 32% of the Moon is Illuminated
Jul 24
Waxing Crescent
Jul 26
First Quarter
Aug 1
Full
Aug 9
Last Quarter
Aug 17
New

Hourly Weather History & Observations

Time (CDT) Temp. Heat Index Dew Point Humidity Pressure Visibility Wind Dir Wind Speed Gust Speed Precip Events Conditions
12:54 AM 86.0 °F 89.4 °F 68.0 °F 55% 29.94 in 10.0 mi SSW 13.8 mph - N/A   Clear
1:54 AM 84.0 °F 88.4 °F 70.0 °F 63% 29.94 in 10.0 mi SSW 12.7 mph - N/A   Clear
2:54 AM 82.9 °F 87.0 °F 70.0 °F 65% 29.92 in 10.0 mi SW 11.5 mph - N/A   Clear
3:54 AM 82.0 °F 85.5 °F 69.1 °F 65% 29.91 in 10.0 mi SW 12.7 mph - N/A   Clear
4:54 AM 82.9 °F 86.5 °F 69.1 °F 63% 29.93 in 10.0 mi WSW 11.5 mph - N/A   Clear
5:54 AM 82.0 °F 85.5 °F 69.1 °F 65% 29.93 in 10.0 mi WSW 12.7 mph - N/A   Clear
6:54 AM 82.9 °F 86.5 °F 69.1 °F 63% 29.94 in 10.0 mi WSW 9.2 mph - N/A   Clear
7:54 AM 84.0 °F 87.8 °F 69.1 °F 61% 29.94 in 10.0 mi WSW 11.5 mph - N/A   Clear
8:54 AM 84.9 °F 88.8 °F 69.1 °F 59% 29.95 in 10.0 mi WSW 6.9 mph - N/A   Clear
9:54 AM 91.9 °F 95.9 °F 68.0 °F 45% 29.96 in 10.0 mi NW 8.1 mph - N/A   Clear
10:54 AM 95.0 °F 99.5 °F 68.0 °F 41% 29.96 in 10.0 mi NW 5.8 mph - N/A   Clear
11:54 AM 93.9 °F 99.1 °F 69.1 °F 44% 29.95 in 10.0 mi Variable 3.5 mph - N/A   Clear
12:54 PM 97.0 °F 102.8 °F 69.1 °F 40% 29.95 in 10.0 mi NNE 9.2 mph - N/A   Clear
1:54 PM 93.9 °F 103.4 °F 73.0 °F 51% 29.94 in 10.0 mi NE 12.7 mph - N/A   Clear
2:54 PM 95.0 °F 103.2 °F 72.0 °F 47% 29.91 in 10.0 mi ENE 6.9 mph - N/A   Clear
3:54 PM 97.0 °F 104.8 °F 71.1 °F 43% 29.90 in 10.0 mi Calm Calm - N/A   Clear
4:54 PM 95.0 °F 104.5 °F 73.0 °F 49% 29.89 in 10.0 mi NE 10.4 mph - N/A   Clear
5:54 PM 93.9 °F 102.1 °F 72.0 °F 49% 29.88 in 10.0 mi East 9.2 mph - N/A   Clear
6:54 PM 91.0 °F 97.6 °F 71.1 °F 52% 29.88 in 10.0 mi East 8.1 mph - N/A   Clear
7:54 PM 87.1 °F 94.5 °F 73.0 °F 63% 29.89 in 10.0 mi ENE 5.8 mph - N/A   Clear
8:54 PM 81.0 °F 85.2 °F 72.0 °F 74% 29.89 in 10.0 mi ENE 6.9 mph - N/A   Clear
9:54 PM 80.1 °F 82.9 °F 69.1 °F 69% 29.90 in 10.0 mi East 6.9 mph - N/A   Clear
10:54 PM 78.1 °F - 69.1 °F 74% 29.89 in 10.0 mi East 5.8 mph - N/A   Clear
11:54 PM 78.1 °F - 70.0 °F 76% 29.91 in 10.0 mi East 6.9 mph - N/A   Partly Cloudy